EW1036 Weather Reports


Display with metric or nautical units.
time (UTC)temp
F
wind
direction
speed
MPH
gust
MPH
rain 1hr
in
rain 24hr
in
rain mn
in
humidity
%
barometer
mb
20260503034031 52 0 0.0 0.0 0.00 0.66 0.66 94 1013.0
20260503033532 52 0 0.0 0.0 0.00 0.66 0.66 94 1013.1
20260503033056 52 0 0.0 1.0 0.00 0.66 0.66 94 1012.9
20260503032532 52 0 0.0 1.0 0.00 0.66 0.66 94 1013.0
20260503032032 52 0 0.0 1.0 0.00 0.66 0.66 94 1013.0
20260503031548 52 0 0.0 0.0 0.00 0.66 0.66 94 1012.9
20260503031034 52 0 0.0 2.0 0.00 0.66 0.66 94 1013.0
20260503030532 52 0 0.0 2.0 0.00 0.66 0.66 94 1012.9
20260503030045 52 0 0.0 1.0 0.00 0.66 0.66 94 1012.8
20260503025532 52 0 0.0 0.0 0.01 0.66 0.66 94 1012.8
20260503025032 52 0 0.0 0.0 0.01 0.66 0.66 94 1012.7
20260503024543 52 0 0.0 0.0 0.01 0.66 0.66 94 1012.8
20260503024032 52 0 0.0 0.0 0.01 0.66 0.66 94 1012.8
20260503023531 52 0 0.0 2.0 0.01 0.66 0.66 94 1012.8
20260503023050 52 0 0.0 2.0 0.01 0.66 0.66 94 1013.0
20260503022532 52 0 0.0 0.0 0.01 0.66 0.66 94 1013.1
20260503022034 52 0 0.0 0.0 0.01 0.66 0.66 94 1013.0
20260503021548 52 0 0.0 2.0 0.01 0.66 0.66 94 1012.9
20260503021032 52 0 0.0 2.0 0.01 0.66 0.66 94 1012.7
20260503020532 52 0 0.0 0.0 0.01 0.66 0.66 94 1012.6
20260503020042 52 0 0.0 0.0 0.01 0.66 0.66 94 1012.7
20260503015532 52 0 0.0 0.0 0.00 0.65 0.65 94 1012.7
20260503015033 52 0 0.0 0.0 0.00 0.65 0.65 94 1012.4
20260503014542 52 0 0.0 1.0 0.00 0.65 0.65 94 1012.4
20260503014031 52 0 0.0 1.0 0.00 0.65 0.65 94 1012.5
20260503013531 52 0 0.0 1.0 0.00 0.65 0.65 93 1012.4
20260503013042 52 0 0.0 1.0 0.00 0.65 0.65 93 1012.4
20260503012533 52 0 0.0 1.0 0.00 0.65 0.65 93 1012.5
20260503012033 52 0 0.0 3.0 0.00 0.65 0.65 93 1012.4
20260503011559 52 0 0.0 3.0 0.00 0.65 0.65 93 1012.4
20260503011032 52 0 0.0 3.0 0.00 0.65 0.65 93 1012.2
20260503010532 52 0 0.0 4.0 0.00 0.65 0.65 93 1012.0
20260503010054 52 0 0.0 4.0 0.00 0.65 0.65 93 1012.2
20260503005533 52 0 0.0 3.0 0.00 0.65 0.65 93 1012.2
20260503005032 52 0 0.0 0.0 0.00 0.65 0.65 93 1012.1
20260503004542 52 0 0.0 0.0 0.00 0.65 0.65 93 1011.9
20260503004033 52 0 0.0 0.0 0.00 0.65 0.65 93 1011.9
20260503003533 53 0 0.0 3.0 0.00 0.65 0.65 93 1012.0
20260503003057 53 0 0.0 3.0 0.00 0.65 0.65 93 1011.9
20260503002531 53 0 0.0 2.0 0.00 0.65 0.65 93 1012.1
20260503002032 53 98 0.0 3.0 0.01 0.65 0.65 93 1011.9
20260503001557 53 0 0.0 3.0 0.01 0.65 0.65 93 1011.6
20260503001034 53 0 0.0 2.0 0.03 0.65 0.65 93 1011.4
20260503000532 53 0 0.0 4.0 0.04 0.65 0.65 93 1011.4
20260503000111 53 179 0.0 4.0 0.04 0.65 0.65 93 1011.4
20260502235531 53 86 0.0 3.0 0.04 0.65 0.65 93 1011.4
20260502235032 53 153 0.0 3.0 0.04 0.65 0.65 93 1011.3
20260502234554 53 0 0.0 3.0 0.05 0.65 0.65 93 1011.3
20260502234032 53 56 0.0 3.0 0.05 0.65 0.65 93 1011.4
20260502233532 54 0 0.0 2.0 0.07 0.65 0.65 93 1011.1
20260502233045 54 0 0.0 3.0 0.09 0.65 0.65 93 1011.0
20260502232531 54 0 0.0 3.0 0.11 0.65 0.65 93 1010.8
20260502232031 54 0 0.0 3.0 0.11 0.64 0.64 93 1010.5
20260502231549 54 72 1.0 3.0 0.11 0.64 0.64 93 1010.6
20260502231030 54 0 0.0 2.0 0.10 0.62 0.62 93 1010.7
20260502230532 54 0 0.0 2.0 0.10 0.61 0.61 93 1010.6
20260502230044 54 0 0.0 3.0 0.10 0.61 0.61 93 1010.7
20260502225532 54 0 0.0 3.0 0.10 0.61 0.61 93 1010.7
20260502225032 54 0 0.0 3.0 0.10 0.61 0.61 93 1010.7
20260502224542 54 0 0.0 3.0 0.10 0.60 0.60 93 1010.7
20260502224032 54 0 0.0 5.0 0.10 0.60 0.60 93 1010.7
20260502223532 54 0 1.0 5.0 0.08 0.58 0.58 92 1010.7
20260502223043 55 65 1.0 5.0 0.07 0.56 0.56 92 1010.7
20260502222531 55 0 0.0 4.0 0.05 0.54 0.54 93 1010.9
20260502222031 55 73 0.0 5.0 0.05 0.52 0.52 93 1010.9
20260502221543 55 0 0.0 5.0 0.05 0.52 0.52 93 1010.5
20260502221032 55 0 0.0 5.0 0.05 0.52 0.52 93 1010.3
20260502220533 55 0 0.0 5.0 0.04 0.51 0.51 93 1010.1
20260502220042 56 69 0.0 3.0 0.05 0.51 0.51 93 1010.1
20260502215532 56 263 0.0 4.0 0.06 0.51 0.51 93 1010.1
20260502215033 56 136 0.0 4.0 0.07 0.51 0.51 93 1009.9
20260502214543 56 0 0.0 4.0 0.07 0.50 0.50 93 1009.9
20260502214031 56 86 0.0 4.0 0.08 0.50 0.50 94 1009.7
20260502213531 57 0 1.0 4.0 0.08 0.50 0.50 94 1009.4
20260502213043 57 76 0.0 4.0 0.07 0.49 0.49 94 1009.6
20260502212532 57 0 1.0 4.0 0.08 0.49 0.49 94 1009.7
20260502212033 57 70 0.0 4.0 0.07 0.48 0.48 94 1009.7
20260502211546 57 74 1.0 4.0 0.08 0.48 0.48 93 1009.7
20260502211031 57 67 0.0 5.0 0.07 0.47 0.47 93 1009.6
20260502210531 57 0 0.0 5.0 0.08 0.47 0.47 93 1009.7
20260502210043 57 0 0.0 4.0 0.08 0.46 0.46 93 1009.7
20260502205532 57 0 0.0 4.0 0.07 0.45 0.45 93 1009.8
20260502205036 57 0 0.0 4.0 0.06 0.44 0.44 93 1009.8
20260502204543 57 0 0.0 4.0 0.06 0.43 0.43 93 1009.9
20260502204033 57 0 0.0 4.0 0.05 0.42 0.42 93 1009.9
20260502203532 57 0 0.0 4.0 0.05 0.42 0.42 93 1009.9
20260502203041 57 0 0.0 4.0 0.05 0.42 0.42 93 1009.9
20260502202531 57 0 0.0 4.0 0.05 0.41 0.41 93 1010.1
20260502202032 57 0 0.0 4.0 0.05 0.41 0.41 93 1010.1
20260502201547 57 0 0.0 3.0 0.04 0.40 0.40 93 1010.2
20260502201032 57 0 0.0 3.0 0.04 0.40 0.40 93 1010.1
20260502200533 57 0 0.0 3.0 0.03 0.39 0.39 93 1010.0
20260502200044 57 0 0.0 4.0 0.03 0.38 0.38 93 1010.0
20260502195531 57 0 0.0 4.0 0.03 0.38 0.38 93 1010.2
20260502195035 57 298 0.0 4.0 0.04 0.38 0.38 93 1010.1
20260502194544 57 0 0.0 3.0 0.03 0.37 0.37 93 1010.2
20260502194032 57 0 0.0 5.0 0.03 0.37 0.37 93 1010.4
20260502193533 58 0 1.0 5.0 0.04 0.37 0.37 93 1010.4
20260502193046 58 0 0.0 2.0 0.04 0.37 0.37 93 1010.6
20260502192532 58 0 0.0 3.0 0.03 0.36 0.36 93 1010.5
20260502192033 58 0 0.0 3.0 0.03 0.36 0.36 93 1010.6
20260502191548 58 71 0.0 2.0 0.04 0.36 0.36 93 1010.3
20260502191033 58 129 0.0 2.0 0.04 0.36 0.36 93 1010.4
20260502190533 58 0 0.0 3.0 0.03 0.35 0.35 93 1010.3
20260502190044 58 0 0.0 3.0 0.03 0.35 0.35 93 1010.3
20260502185533 58 0 0.0 3.0 0.03 0.35 0.35 93 1010.6
20260502185033 58 197 0.0 2.0 0.03 0.34 0.34 93 1010.8
20260502184542 58 0 0.0 7.0 0.03 0.34 0.34 93 1011.0
20260502184033 58 0 1.0 7.0 0.04 0.34 0.34 93 1011.1
20260502183531 58 0 0.0 3.0 0.04 0.33 0.33 93 1010.9
20260502183044 58 0 0.0 1.0 0.05 0.33 0.33 93 1010.8
20260502182531 58 0 0.0 4.0 0.05 0.33 0.33 93 1010.7
20260502182031 58 0 0.0 4.0 0.06 0.33 0.33 93 1010.7
20260502181549 58 0 0.0 4.0 0.07 0.32 0.32 93 1010.8
20260502181033 58 0 0.0 4.0 0.08 0.32 0.32 93 1010.7
20260502180534 58 70 0.0 5.0 0.10 0.32 0.32 93 1010.6
20260502164044 58 0 0.0 3.0 0.06 0.16 0.16 92 1012.3
20260502163533 58 0 0.0 3.0 0.05 0.15 0.15 92 1012.1
20260502163051 58 0 0.0 1.0 0.06 0.15 0.15 92 1012.1
20260502162533 58 0 0.0 2.0 0.05 0.14 0.14 91 1012.1
20260502162032 58 0 0.0 2.0 0.04 0.13 0.13 91 1012.2
20260502161544 58 0 0.0 1.0 0.03 0.12 0.12 91 1012.2
20260502161033 58 0 0.0 1.0 0.03 0.12 0.12 91 1012.2
20260502160534 58 0 0.0 4.0 0.02 0.11 0.11 91 1012.4
20260502152034 58 0 0.0 4.0 0.00 0.09 0.09 90 1012.1
20260502151548 58 0 0.0 2.0 0.00 0.09 0.09 90 1012.3
20260502151034 58 0 0.0 2.0 0.00 0.09 0.09 91 1012.5
20260502150533 58 114 0.0 2.0 0.00 0.09 0.09 91 1012.2
20260502130533 56 0 0.0 3.0 0.00 0.09 0.09 94 1011.8
20260502123532 56 0 0.0 3.0 0.01 0.09 0.09 93 1011.7
20260502123054 56 61 0.0 3.0 0.02 0.09 0.09 93 1011.7
20260502122533 56 0 0.0 3.0 0.02 0.09 0.09 93 1011.7
20260502122033 56 0 0.0 3.0 0.03 0.09 0.09 93 1011.7
20260502121541 56 0 0.0 3.0 0.04 0.09 0.09 93 1011.6
20260502121033 56 0 0.0 1.0 0.04 0.09 0.09 93 1011.6
20260502120533 56 0 0.0 1.0 0.05 0.09 0.09 93 1011.6
20260502115534 56 0 0.0 1.0 0.05 0.08 0.08 93 1011.7
20260502115033 56 0 0.0 1.0 0.06 0.08 0.08 93 1011.6
20260502114543 56 0 0.0 4.0 0.06 0.08 0.08 93 1011.5
20260502114033 56 0 0.0 4.0 0.07 0.08 0.08 93 1011.4
20260502113533 57 138 0.0 5.0 0.07 0.08 0.08 93 1011.5
20260502113049 57 0 0.0 5.0 0.06 0.07 0.07 93 1011.5
20260502112532 57 19 0.0 2.0 0.07 0.07 0.07 93 1011.4
20260502112032 57 0 0.0 2.0 0.06 0.06 0.06 93 1011.3
20260502111553 57 0 0.0 1.0 0.05 0.05 0.05 93 1011.3
20260502111032 57 0 0.0 0.0 0.05 0.05 0.05 93 1011.3
20260502110532 57 0 0.0 0.0 0.04 0.04 0.04 93 1011.2
20260502110042 57 0 0.0 0.0 0.03 0.03 0.03 93 1011.0
20260502105533 57 0 0.0 0.0 0.03 0.03 0.03 93 1011.1
20260502105033 56 0 0.0 1.0 0.02 0.02 0.02 93 1011.1
20260502104545 56 0 0.0 1.0 0.02 0.02 0.02 93 1011.1
20260502104036 56 0 0.0 4.0 0.01 0.01 0.01 93 1011.2
20260502103533 56 0 0.0 4.0 0.01 0.01 0.01 93 1011.1
20260502103043 56 0 0.0 0.0 0.01 0.01 0.01 93 1011.3
20260502102533 56 0 0.0 1.0 0.00 0.00 0.00 92 1011.2
20260502102034 56 0 0.0 1.0 0.00 0.00 0.00 92 1011.3
20260502101546 56 0 0.0 1.0 0.00 0.00 0.00 92 1011.1
20260502101032 56 0 0.0 1.0 0.00 0.00 0.00 92 1011.1
20260502100532 56 0 0.0 1.0 0.00 0.00 0.00 92 1011.0
20260502091032 56 0 0.0 0.0 0.00 0.00 0.00 90 1010.7
20260502090532 56 0 0.0 0.0 0.00 0.00 0.00 91 1010.7
20260502071034 56 0 0.0 0.0 0.00 0.00 0.00 88 1011.0
20260502070534 56 0 0.0 0.0 0.00 0.00 0.00 88 1011.0
20260502070048 56 0 0.0 0.0 0.00 0.00 0.00 88 1011.2
20260502065533 56 0 0.0 0.0 0.00 0.00 0.00 88 1011.2
20260502065033 56 0 0.0 0.0 0.00 0.00 0.00 88 1011.2
20260502064550 56 0 0.0 0.0 0.00 0.00 0.00 88 1011.3
20260502064035 56 0 0.0 0.0 0.00 0.00 0.00 88 1011.2
20260502063533 56 0 0.0 0.0 0.00 0.00 0.00 88 1011.2
20260502063100 56 0 0.0 0.0 0.00 0.00 0.00 88 1011.3
20260502062532 56 0 0.0 0.0 0.00 0.00 0.00 88 1011.3
20260502062031 56 0 0.0 0.0 0.00 0.00 0.00 87 1011.4
20260502061552 56 0 0.0 0.0 0.00 0.00 0.00 87 1011.3
20260502061032 56 0 0.0 0.0 0.00 0.00 0.00 87 1011.2
20260502060532 56 0 0.0 0.0 0.00 0.00 0.00 87 1011.3
20260502060051 56 0 0.0 0.0 0.00 0.00 0.00 87 1011.2
20260502055533 56 0 0.0 0.0 0.00 0.00 0.00 87 1011.4
20260502055033 56 0 0.0 0.0 0.00 0.00 0.00 87 1011.5
20260502054545 56 0 0.0 0.0 0.00 0.00 0.00 87 1011.7
20260502054032 57 0 0.0 0.0 0.00 0.00 0.00 87 1011.9
20260502053532 57 0 0.0 0.0 0.00 0.00 0.00 87 1011.9
20260502053055 57 0 0.0 0.0 0.00 0.00 0.00 87 1012.0
20260502052532 57 0 0.0 0.0 0.00 0.00 0.00 86 1012.0
20260502052032 57 0 0.0 0.0 0.00 0.00 0.00 86 1012.1
20260502051545 57 0 0.0 0.0 0.00 0.00 0.00 85 1012.1
20260502051032 57 0 0.0 0.0 0.00 0.00 0.00 85 1012.0
20260502050533 57 0 0.0 0.0 0.00 0.00 0.00 85 1012.1
20260502050050 57 0 0.0 0.0 0.00 0.00 0.00 85 1012.1
20260502045532 57 0 0.0 0.0 0.00 0.00 0.00 85 1012.2
20260502045033 57 0 0.0 2.0 0.00 0.00 0.00 85 1012.0
20260502044548 57 0 0.0 2.0 0.00 0.00 0.00 85 1012.1
20260502044031 57 67 0.0 1.0 0.00 0.00 0.00 85 1012.2
20260502043534 57 0 0.0 0.0 0.00 0.00 0.00 85 1012.2
20260502043042 57 0 0.0 0.0 0.00 0.00 0.00 85 1012.2
20260502042532 57 0 0.0 1.0 0.00 0.00 0.00 85 1012.3
20260502042032 57 0 0.0 1.0 0.00 0.00 0.00 85 1012.3
20260502041539 57 0 0.0 0.0 0.00 0.00 0.00 85 1012.4
20260502041032 57 0 0.0 0.0 0.00 0.00 0.00 85 1012.5
20260502040532 56 0 0.0 0.0 0.00 0.00 0.00 84 1012.5
20260502040101 56 0 0.0 0.0 0.00 0.00 0.00 84 1012.5
20260502035532 56 0 0.0 0.0 0.00 0.00 0.00 85 1012.6
20260502035032 56 0 0.0 0.0 0.00 0.00 0.00 85 1012.7
20260502034545 56 0 0.0 0.0 0.00 0.00 0.00 85 1012.8